"read_dt","SO2 (ppb)","flags","PMT voltage (V)","lamp voltage (V)","lamp intensity (Hz)","internal temp (C)","react chamber temp (C)","sample flow (l/min)","pres (mmHg)","SO2 bkg (ppb)","SO2 coefficient"
2018-07-26 00:00:00,-2.642E-01,4C000000*,-703.0,967.831,89,25.1,44.8,0.408,739.6,2.2,1.050*
2018-07-26 00:01:00,-3.134E-01,4C000000*,-703.0,969.044,90,25.0,45.1,0.408,739.6,2.2,1.050*
2018-07-26 00:02:00,-2.156E-01,4C000000*,-703.0,969.448,89,25.0,44.8,0.408,739.6,2.2,1.050*
2018-07-26 00:03:00,-2.624E-01,4C000000*,-703.0,968.235,90,25.0,44.9,0.408,739.6,2.2,1.050*
2018-07-26 00:04:00,-3.220E-01,4C000000*,-703.0,969.448,90,25.0,45.0,0.408,739.6,2.2,1.050*
2018-07-26 00:05:00,-2.630E-01,4C000000*,-703.0,968.235,89,25.1,44.8,0.408,739.6,2.2,1.050*
2018-07-26 00:06:00,-2.508E-01,4C000000*,-702.6,969.448,90,25.1,45.0,0.408,739.6,2.2,1.050*
2018-07-26 00:07:00,-2.148E-01,4C000000*,-703.0,969.448,91,25.0,45.1,0.408,739.6,2.2,1.050*
2018-07-26 00:08:00,-3.334E-01,4C000000*,-702.6,968.235,89,25.1,44.8,0.408,739.6,2.2,1.050*
2018-07-26 00:09:00,-2.167E-01,4C000000*,-702.3,967.831,90,25.1,45.0,0.408,739.6,2.2,1.050*
2018-07-26 00:10:00,-3.083E-01,4C000000*,-703.0,968.235,90,25.1,44.8,0.408,739.6,2.2,1.050*
2018-07-26 00:11:00,-2.537E-01,4C000000*,-703.0,968.235,89,25.1,44.8,0.408,739.9,2.2,1.050*
2018-07-26 00:12:00,-2.580E-01,4C000000*,-702.3,969.044,90,25.1,45.1,0.408,739.6,2.2,1.050*
2018-07-26 00:13:00,-2.190E-01,4C000000*,-703.0,968.639,90,25.2,44.8,0.408,739.6,2.2,1.050*
2018-07-26 00:14:00,-3.673E-01,4C000000*,-702.6,968.639,90,25.1,44.9,0.408,739.9,2.2,1.050*
2018-07-26 00:15:00,-3.888E-01,4C000000*,-702.3,969.852,90,25.1,45.1,0.408,739.6,2.2,1.050*
2018-07-26 00:16:00,-2.931E-01,4C000000*,-702.6,968.639,91,25.1,44.8,0.408,739.6,2.2,1.050*
2018-07-26 00:17:00,-2.609E-01,4C000000*,-702.6,967.831,91,25.1,45.0,0.408,739.6,2.2,1.050*
2018-07-26 00:18:00,-2.716E-01,4C000000*,-703.0,967.022,90,25.2,45.0,0.408,739.6,2.2,1.050*
2018-07-26 00:19:00,-3.060E-01,4C000000*,-702.6,967.022,90,25.2,44.8,0.408,739.6,2.2,1.050*
2018-07-26 00:20:00,-3.133E-01,4C000000*,-703.0,967.427,90,25.2,45.0,0.408,739.6,2.2,1.050*
2018-07-26 00:21:00,-2.715E-01,4C000000*,-702.6,967.831,90,25.1,45.0,0.408,739.6,2.2,1.050*
2018-07-26 00:22:00,-3.042E-01,4C000000*,-703.0,969.044,90,25.2,44.8,0.407,739.6,2.2,1.050*
2018-07-26 00:23:00,-3.279E-01,4C000000*,-703.0,969.448,88,25.2,44.9,0.408,739.6,2.2,1.050*
2018-07-26 00:24:00,-2.338E-01,4C000000*,-702.6,968.639,91,25.2,45.1,0.408,739.3,2.2,1.050*
2018-07-26 00:25:00,-3.423E-01,4C000000*,-703.0,968.235,90,25.2,44.8,0.408,739.6,2.2,1.050*
2018-07-26 00:26:00,-2.149E-01,4C000000*,-703.0,968.235,90,25.2,45.0,0.408,739.6,2.2,1.050*
2018-07-26 00:27:00,-2.591E-01,4C000000*,-702.6,968.639,90,25.2,44.9,0.408,739.6,2.2,1.050*
2018-07-26 00:28:00,-3.244E-01,4C000000*,-703.4,966.214,90,25.2,44.8,0.408,739.6,2.2,1.050*
2018-07-26 00:29:00,-2.284E-01,4C000000*,-703.4,968.235,89,25.2,45.1,0.408,739.6,2.2,1.050*
2018-07-26 00:30:00,-2.365E-01,4C000000*,-702.6,968.235,90,25.2,44.9,0.408,739.6,2.2,1.050*
2018-07-26 00:31:00,-3.058E-01,4C000000*,-702.6,967.022,89,25.2,45.0,0.408,739.6,2.2,1.050*
2018-07-26 00:32:00,-2.623E-01,4C000000*,-702.6,968.639,89,25.2,45.0,0.408,739.6,2.2,1.050*
2018-07-26 00:33:00,-2.275E-01,4C000000*,-702.6,968.235,90,25.2,44.9,0.408,739.6,2.2,1.050*
2018-07-26 00:34:00,-1.742E-01,4C000000*,-703.0,969.852,90,25.2,45.2,0.408,739.6,2.2,1.050*
2018-07-26 00:35:00,-1.877E-01,4C000000*,-702.6,967.022,90,25.3,44.8,0.408,739.6,2.2,1.050*
2018-07-26 00:36:00,-2.856E-01,4C000000*,-703.4,967.831,90,25.2,44.8,0.408,739.6,2.2,1.050*
2018-07-26 00:37:00,-3.081E-01,4C000000*,-702.3,969.044,89,25.3,45.0,0.408,739.6,2.2,1.050*
2018-07-26 00:38:00,-3.623E-01,4C000000*,-703.0,968.639,91,25.2,44.8,0.408,739.6,2.2,1.050*
2018-07-26 00:39:00,-2.836E-01,4C000000*,-703.4,967.427,90,25.3,45.0,0.408,739.6,2.2,1.050*
2018-07-26 00:40:00,-3.142E-01,4C000000*,-703.4,968.235,90,25.3,45.0,0.408,739.6,2.2,1.050*
2018-07-26 00:41:00,-2.430E-01,4C000000*,-703.0,967.427,90,25.3,44.8,0.408,739.6,2.2,1.050*
2018-07-26 00:42:00,-2.322E-01,4C000000*,-703.4,968.235,90,25.3,45.0,0.408,739.6,2.2,1.050*
2018-07-26 00:43:00,-3.124E-01,4C000000*,-703.0,969.448,87,25.3,44.9,0.408,739.6,2.2,1.050*
2018-07-26 00:44:00,-2.576E-01,4C000000*,-702.6,967.831,89,25.3,44.8,0.408,739.6,2.2,1.050*
2018-07-26 00:45:00,-2.376E-01,4C000000*,-703.0,967.831,91,25.3,45.1,0.408,739.6,2.2,1.050*
2018-07-26 00:46:00,-3.354E-01,4C000000*,-703.0,967.427,90,25.3,44.8,0.408,739.6,2.2,1.050*
2018-07-26 00:47:00,-2.636E-01,4C000000*,-702.6,968.235,90,25.3,44.9,0.408,739.6,2.2,1.050*
2018-07-26 00:48:00,-2.768E-01,4C000000*,-702.6,969.448,89,25.3,45.1,0.408,739.6,2.2,1.050*
2018-07-26 00:49:00,-2.816E-01,4C000000*,-703.0,967.831,89,25.3,44.8,0.408,739.6,2.2,1.050*
2018-07-26 00:50:00,-2.638E-01,4C000000*,-703.0,968.235,90,25.3,44.9,0.408,739.6,2.2,1.050*
2018-07-26 00:51:00,-3.078E-01,4C000000*,-703.0,968.639,89,25.4,45.1,0.408,739.3,2.2,1.050*
2018-07-26 00:52:00,-2.965E-01,4C000000*,-702.6,967.427,90,25.4,44.8,0.408,739.6,2.2,1.050*
2018-07-26 00:53:00,-1.930E-01,4C000000*,-702.6,968.639,89,25.4,45.1,0.408,739.6,2.2,1.050*
2018-07-26 00:54:00,-3.395E-01,4C000000*,-702.6,968.235,90,25.4,44.9,0.408,739.3,2.2,1.050*
2018-07-26 00:55:00,-2.972E-01,4C000000*,-702.6,968.639,89,25.5,44.8,0.408,739.6,2.2,1.050*
2018-07-26 00:56:00,-3.255E-01,4C000000*,-703.0,967.022,91,25.4,45.1,0.408,739.6,2.2,1.050*
2018-07-26 00:57:00,-2.670E-01,4C000000*,-703.0,969.044,89,25.4,44.8,0.408,739.3,2.2,1.050*
2018-07-26 00:58:00,-3.022E-01,4C000000*,-703.0,967.427,89,25.4,44.9,0.408,739.6,2.2,1.050*
2018-07-26 00:59:00,-2.640E-01,4C000000*,-703.0,967.831,91,25.4,45.1,0.408,739.3,2.2,1.050*
2018-07-26 01:00:00,-2.748E-01,4C000000*,-703.0,967.427,90,25.4,44.8,0.408,739.6,2.2,1.050*
2018-07-26 01:01:00,-2.016E-01,4C000000*,-702.6,969.044,90,25.5,45.0,0.408,739.6,2.2,1.050*
2018-07-26 01:02:00,-3.305E-01,4C000000*,-703.0,967.022,90,25.5,45.1,0.408,739.3,2.2,1.050*
2018-07-26 01:03:00,-2.185E-01,4C000000*,-702.6,968.235,90,25.4,44.8,0.408,739.6,2.2,1.050*
2018-07-26 01:04:00,-3.429E-01,4C000000*,-703.0,968.639,89,25.5,45.1,0.408,739.6,2.2,1.050*
2018-07-26 01:05:00,-3.497E-01,4C000000*,-702.6,967.831,90,25.5,44.9,0.408,739.3,2.2,1.050*
2018-07-26 01:06:00,-2.309E-01,4C000000*,-703.0,966.618,90,25.5,44.8,0.408,739.3,2.2,1.050*
2018-07-26 01:07:00,-3.193E-01,4C000000*,-703.0,966.618,90,25.5,45.0,0.408,739.6,2.2,1.050*
2018-07-26 01:08:00,-2.511E-01,4C000000*,-702.6,967.427,88,25.5,45.0,0.407,739.3,2.2,1.050*
2018-07-26 01:09:00,-2.780E-01,4C000000*,-703.0,966.618,90,25.4,44.8,0.408,739.6,2.2,1.050*
2018-07-26 01:10:00,-2.928E-01,4C000000*,-703.0,967.022,90,25.5,45.0,0.408,739.6,2.2,1.050*
2018-07-26 01:11:00,-2.754E-01,4C000000*,-703.0,967.831,89,25.6,44.9,0.408,739.3,2.2,1.050*
2018-07-26 01:12:00,-2.933E-01,4C000000*,-702.6,966.618,90,25.5,44.8,0.408,739.6,2.2,1.050*
2018-07-26 01:13:00,-2.612E-01,4C000000*,-703.4,967.022,91,25.5,45.1,0.408,739.6,2.2,1.050*
2018-07-26 01:14:00,-3.047E-01,4C000000*,-703.0,967.022,88,25.5,44.8,0.408,739.6,2.2,1.050*
2018-07-26 01:15:00,-1.807E-01,4C000000*,-702.6,966.618,89,25.5,44.9,0.408,739.6,2.2,1.050*
2018-07-26 01:16:00,-2.278E-01,4C000000*,-703.0,965.405,90,25.5,45.1,0.408,739.6,2.2,1.050*
2018-07-26 01:17:00,-3.586E-01,4C000000*,-703.0,967.427,90,25.5,44.8,0.408,739.6,2.2,1.050*
2018-07-26 01:18:00,-2.973E-01,4C000000*,-703.0,967.022,91,25.5,45.0,0.408,739.6,2.2,1.050*
2018-07-26 01:19:00,-2.814E-01,4C000000*,-702.6,967.022,90,25.5,45.1,0.408,739.6,2.2,1.050*
2018-07-26 01:20:00,-2.641E-01,4C000000*,-703.0,967.022,89,25.6,44.8,0.408,739.6,2.2,1.050*
2018-07-26 01:21:00,-2.402E-01,4C000000*,-702.6,967.022,89,25.6,45.0,0.408,739.6,2.2,1.050*
2018-07-26 01:22:00,-3.462E-01,4C000000*,-703.0,967.427,89,25.7,44.9,0.408,739.3,2.2,1.050*
2018-07-26 01:23:00,-3.071E-01,4C000000*,-703.4,968.235,90,25.6,44.8,0.409,739.6,2.2,1.050*
2018-07-26 01:24:00,-2.855E-01,4C000000*,-702.6,967.831,91,25.7,45.1,0.408,739.6,2.2,1.050*
2018-07-26 01:25:00,-3.183E-01,4C000000*,-703.0,966.214,90,25.6,44.8,0.408,739.3,2.2,1.050*
2018-07-26 01:26:00,-2.758E-01,4C000000*,-703.0,969.044,91,25.6,44.9,0.408,739.6,2.2,1.050*
2018-07-26 01:27:00,-2.797E-01,4C000000*,-703.0,968.235,89,25.6,45.1,0.408,739.6,2.2,1.050*
2018-07-26 01:28:00,-3.029E-01,4C000000*,-703.0,969.448,89,25.6,44.7,0.408,739.6,2.2,1.050*
2018-07-26 01:29:00,-2.835E-01,4C000000*,-703.0,967.427,91,25.6,45.0,0.409,739.6,2.2,1.050*
2018-07-26 01:30:00,-3.120E-01,4C000000*,-703.0,967.831,91,25.7,45.1,0.408,739.6,2.2,1.050*
2018-07-26 01:31:00,-3.124E-01,4C000000*,-703.0,968.639,91,25.6,44.8,0.408,739.6,2.2,1.050*
2018-07-26 01:32:00,-2.916E-01,4C000000*,-702.6,968.235,90,25.7,45.0,0.408,739.3,2.2,1.050*
2018-07-26 01:33:00,-3.378E-01,4C000000*,-702.6,967.022,89,25.7,44.9,0.408,739.3,2.2,1.050*
2018-07-26 01:34:00,-2.665E-01,4C000000*,-703.0,967.427,91,25.7,44.8,0.408,739.6,2.2,1.050*
2018-07-26 01:35:00,-3.443E-01,4C000000*,-703.0,966.618,89,25.7,45.1,0.408,739.6,2.2,1.050*
2018-07-26 01:36:00,-2.076E-01,4C000000*,-703.0,967.831,90,25.7,44.8,0.408,739.3,2.2,1.050*
2018-07-26 01:37:00,-2.679E-01,4C000000*,-702.6,966.618,90,25.7,44.9,0.408,739.6,2.2,1.050*
2018-07-26 01:38:00,-2.408E-01,4C000000*,-703.0,967.022,88,25.7,45.2,0.408,739.6,2.2,1.050*
2018-07-26 01:39:00,-3.373E-01,4C000000*,-703.0,966.214,91,25.7,44.8,0.408,739.6,2.2,1.050*
2018-07-26 01:40:00,-2.230E-01,4C000000*,-703.0,965.809,90,25.7,45.0,0.408,739.6,2.2,1.050*
2018-07-26 01:41:00,-2.448E-01,4C000000*,-703.0,966.618,91,25.7,45.1,0.408,739.6,2.2,1.050*
2018-07-26 01:42:00,-3.095E-01,4C000000*,-702.6,966.214,90,25.7,44.8,0.408,739.6,2.2,1.050*
2018-07-26 01:43:00,-3.254E-01,4C000000*,-703.0,965.809,89,25.7,45.0,0.408,739.6,2.2,1.050*
2018-07-26 01:44:00,-2.260E-01,4C000000*,-702.6,967.427,90,25.8,44.9,0.408,739.6,2.2,1.050*
2018-07-26 01:45:00,-3.295E-01,4C000000*,-703.0,965.001,91,25.8,44.8,0.408,739.6,2.2,1.050*
2018-07-26 01:46:00,-3.134E-01,4C000000*,-703.0,967.427,90,25.8,45.0,0.408,739.6,2.2,1.050*
2018-07-26 01:47:00,-2.580E-01,4C000000*,-702.6,967.427,90,25.8,44.9,0.408,739.3,2.2,1.050*
2018-07-26 01:48:00,-3.229E-01,4C000000*,-703.0,966.618,92,25.9,44.9,0.408,739.6,2.2,1.050*
2018-07-26 01:49:00,-2.584E-01,4C000000*,-702.6,966.214,89,25.9,45.2,0.408,739.6,2.2,1.050*
2018-07-26 01:50:00,-2.955E-01,4C000000*,-703.0,965.405,90,25.7,44.8,0.408,739.6,2.2,1.050*
2018-07-26 01:51:00,-2.961E-01,4C000000*,-703.0,967.022,89,25.8,45.0,0.408,739.6,2.2,1.050*
2018-07-26 01:52:00,-3.186E-01,4C000000*,-702.6,967.427,89,25.9,45.0,0.408,739.6,2.2,1.050*
2018-07-26 01:53:00,-1.956E-01,4C000000*,-703.0,966.618,91,25.9,44.8,0.408,739.6,2.2,1.050*
2018-07-26 01:54:00,-2.775E-01,4C000000*,-703.0,966.618,89,25.9,45.1,0.408,739.6,2.2,1.050*
2018-07-26 01:55:00,-2.341E-01,4C000000*,-702.6,967.022,90,25.9,44.9,0.408,739.6,2.2,1.050*
2018-07-26 01:56:00,-4.039E-01,4C000000*,-703.0,965.405,89,25.9,44.8,0.408,739.6,2.2,1.050*
2018-07-26 01:57:00,-3.420E-01,4C000000*,-703.0,965.809,91,25.9,45.0,0.408,739.3,2.2,1.050*
2018-07-26 01:58:00,-3.321E-01,4C000000*,-703.0,966.214,91,26.0,44.8,0.408,739.6,2.2,1.050*
2018-07-26 01:59:00,-2.814E-01,4C000000*,-702.6,965.405,90,26.0,44.9,0.408,739.6,2.2,1.050*
2018-07-26 02:00:00,-2.447E-01,4C000000*,-702.6,965.405,89,26.0,45.2,0.408,739.6,2.2,1.050*
2018-07-26 02:01:00,-2.708E-01,4C000000*,-702.3,966.618,91,25.9,44.7,0.408,739.6,2.2,1.050*
2018-07-26 02:02:00,-2.649E-01,4C000000*,-703.0,967.022,90,26.0,44.9,0.408,739.6,2.2,1.050*
2018-07-26 02:03:00,-2.796E-01,4C000000*,-703.4,966.214,89,26.0,45.0,0.408,739.6,2.2,1.050*
2018-07-26 02:04:00,-2.413E-01,4C000000*,-702.6,965.405,90,26.0,44.8,0.408,739.6,2.2,1.050*
2018-07-26 02:05:00,-2.440E-01,4C000000*,-702.6,965.809,89,26.0,45.1,0.408,739.6,2.2,1.050*
2018-07-26 02:06:00,-2.376E-01,4C000000*,-702.6,967.022,90,26.0,44.9,0.408,739.6,2.2,1.050*
2018-07-26 02:07:00,-3.046E-01,4C000000*,-702.6,966.618,91,26.0,45.0,0.408,739.6,2.2,1.050*
2018-07-26 02:08:00,-2.847E-01,4C000000*,-703.4,966.214,90,26.0,45.0,0.408,739.3,2.2,1.050*
2018-07-26 02:09:00,-2.621E-01,4C000000*,-703.0,964.597,90,26.0,44.9,0.408,739.6,2.2,1.050*
2018-07-26 02:10:00,-2.602E-01,4C000000*,-702.6,965.001,90,26.0,45.2,0.408,739.3,2.2,1.050*
2018-07-26 02:11:00,-3.596E-01,4C000000*,-703.0,968.235,90,26.0,44.7,0.408,739.6,2.2,1.050*
2018-07-26 02:12:00,-2.194E-01,4C000000*,-702.6,966.214,90,26.1,44.8,0.408,739.6,2.2,1.050*
2018-07-26 02:13:00,-2.626E-01,4C000000*,-702.6,965.809,90,26.1,45.1,0.408,739.6,2.2,1.050*
2018-07-26 02:14:00,-3.461E-01,4C000000*,-703.0,966.618,89,26.0,44.8,0.408,739.6,2.2,1.050*
2018-07-26 02:15:00,-3.530E-01,4C000000*,-703.0,967.831,89,26.1,45.0,0.408,739.6,2.2,1.050*
2018-07-26 02:16:00,-3.144E-01,4C000000*,-702.6,966.618,90,26.1,45.0,0.408,739.3,2.2,1.050*
2018-07-26 02:17:00,-3.116E-01,4C000000*,-703.0,966.618,90,26.1,44.8,0.408,739.6,2.2,1.050*
2018-07-26 02:18:00,-2.089E-01,4C000000*,-702.6,965.809,90,26.2,45.0,0.408,739.6,2.2,1.050*
2018-07-26 02:19:00,-3.121E-01,4C000000*,-703.0,965.809,90,26.1,45.0,0.408,739.3,2.2,1.050*
2018-07-26 02:20:00,-3.394E-01,4C000000*,-703.0,965.405,89,26.2,44.9,0.408,739.6,2.2,1.050*
2018-07-26 02:21:00,-2.802E-01,4C000000*,-703.0,967.022,89,26.1,45.1,0.408,739.3,2.2,1.050*
2018-07-26 02:22:00,-3.389E-01,4C000000*,-703.0,967.427,90,26.2,44.8,0.408,739.6,2.2,1.050*
2018-07-26 02:23:00,-2.269E-01,4C000000*,-702.6,967.022,89,26.2,45.1,0.408,739.6,2.2,1.050*
2018-07-26 02:24:00,-2.866E-01,4C000000*,-703.0,967.022,90,26.2,44.8,0.408,739.3,2.2,1.050*
2018-07-26 02:25:00,-2.688E-01,4C000000*,-702.6,967.022,90,26.2,45.0,0.408,739.3,2.2,1.050*
2018-07-26 02:26:00,-2.187E-01,4C000000*,-702.3,967.427,90,26.1,45.0,0.408,739.6,2.2,1.050*
2018-07-26 02:27:00,-2.743E-01,4C000000*,-703.0,967.022,89,26.1,44.9,0.408,739.3,2.2,1.050*
2018-07-26 02:28:00,-2.548E-01,4C000000*,-703.0,967.022,89,26.2,45.1,0.408,739.3,2.2,1.050*
2018-07-26 02:29:00,-3.393E-01,4C000000*,-703.0,967.427,90,26.1,44.8,0.408,739.3,2.2,1.050*
2018-07-26 02:30:00,-2.585E-01,4C000000*,-702.6,967.022,90,26.2,45.0,0.409,739.6,2.2,1.050*
2018-07-26 02:31:00,-3.142E-01,4C000000*,-702.6,966.618,89,26.2,44.8,0.408,739.3,2.2,1.050*
2018-07-26 02:32:00,-3.533E-01,4C000000*,-703.0,966.214,90,26.2,44.9,0.408,739.6,2.2,1.050*
2018-07-26 02:33:00,-3.178E-01,4C000000*,-703.4,965.809,90,26.2,45.2,0.408,739.6,2.2,1.050*
2018-07-26 02:34:00,-2.779E-01,4C000000*,-703.0,966.214,90,26.2,44.8,0.408,739.3,2.2,1.050*
2018-07-26 02:35:00,-2.614E-01,4C000000*,-703.0,966.214,91,26.2,44.9,0.408,739.6,2.2,1.050*
2018-07-26 02:36:00,-3.049E-01,4C000000*,-702.6,965.809,89,26.3,45.0,0.408,739.3,2.2,1.050*
2018-07-26 02:37:00,-2.644E-01,4C000000*,-703.0,965.405,90,26.2,44.8,0.408,739.6,2.2,1.050*
2018-07-26 02:38:00,-2.880E-01,4C000000*,-702.6,966.214,90,26.2,45.0,0.408,739.6,2.2,1.050*
2018-07-26 02:39:00,-3.057E-01,4C000000*,-703.0,967.427,90,26.2,45.0,0.408,739.3,2.2,1.050*
2018-07-26 02:40:00,-2.891E-01,4C000000*,-702.6,967.427,90,26.3,44.8,0.408,739.6,2.2,1.050*
2018-07-26 02:41:00,-3.425E-01,4C000000*,-703.0,966.618,91,26.3,45.1,0.408,739.6,2.2,1.050*
2018-07-26 02:42:00,-3.235E-01,4C000000*,-702.6,966.214,91,26.2,44.8,0.408,739.3,2.2,1.050*
2018-07-26 02:43:00,-3.273E-01,4C000000*,-703.0,965.809,89,26.3,44.9,0.408,739.6,2.2,1.050*
2018-07-26 02:44:00,-3.093E-01,4C000000*,-702.6,966.214,91,26.2,45.2,0.408,739.3,2.2,1.050*
2018-07-26 02:45:00,-3.066E-01,4C000000*,-702.6,967.427,89,26.4,44.8,0.408,739.3,2.2,1.050*
2018-07-26 02:46:00,-2.534E-01,4C000000*,-701.9,965.809,89,26.3,45.0,0.408,739.6,2.2,1.050*
2018-07-26 02:47:00,-2.773E-01,4C000000*,-702.6,967.022,90,26.2,45.0,0.408,739.3,2.2,1.050*
2018-07-26 02:48:00,-3.232E-01,4C000000*,-702.6,967.831,91,26.3,44.9,0.408,739.6,2.2,1.050*
2018-07-26 02:49:00,-2.838E-01,4C000000*,-702.6,967.022,90,26.3,45.1,0.408,739.3,2.2,1.050*
2018-07-26 02:50:00,-2.589E-01,4C000000*,-703.4,967.022,91,26.4,44.9,0.408,739.3,2.2,1.050*
2018-07-26 02:51:00,-1.788E-01,4C000000*,-702.3,966.618,89,26.3,45.1,0.408,739.3,2.2,1.050*
2018-07-26 02:52:00,-3.339E-01,4C000000*,-702.3,967.427,90,26.4,44.9,0.408,739.3,2.2,1.050*
2018-07-26 02:53:00,-3.286E-01,4C000000*,-702.6,966.618,90,26.4,44.8,0.408,739.3,2.2,1.050*
2018-07-26 02:54:00,-2.716E-01,4C000000*,-703.0,967.427,90,26.4,45.0,0.408,739.3,2.2,1.050*
2018-07-26 02:55:00,-3.587E-01,4C000000*,-703.0,967.831,91,26.4,44.9,0.409,739.3,2.2,1.050*
2018-07-26 02:56:00,-2.904E-01,4C000000*,-703.0,968.235,90,26.4,44.9,0.408,739.3,2.2,1.050*
2018-07-26 02:57:00,-2.952E-01,4C000000*,-702.6,967.022,90,26.4,45.2,0.408,739.3,2.2,1.050*
2018-07-26 02:58:00,-2.894E-01,4C000000*,-703.0,966.618,88,26.4,44.8,0.408,739.3,2.2,1.050*
2018-07-26 02:59:00,-2.862E-01,4C000000*,-703.0,967.427,89,26.4,45.0,0.408,739.3,2.2,1.050*
2018-07-26 03:00:00,-2.631E-01,4C000000*,-702.6,966.618,89,26.4,45.0,0.408,739.3,2.2,1.050*
2018-07-26 03:01:00,-3.780E-01,4C000000*,-703.0,965.405,89,26.3,44.8,0.408,739.3,2.2,1.050*
2018-07-26 03:02:00,-3.472E-01,4C000000*,-702.3,967.427,89,26.4,45.0,0.408,739.6,2.2,1.050*
2018-07-26 03:03:00,-3.317E-01,4C000000*,-702.6,965.809,89,26.5,45.0,0.408,739.3,2.2,1.050*
2018-07-26 03:04:00,-2.668E-01,4C000000*,-702.6,966.618,88,26.4,44.8,0.409,739.3,2.2,1.050*
2018-07-26 03:05:00,-3.271E-01,4C000000*,-703.0,966.214,91,26.4,45.1,0.408,739.3,2.2,1.050*
2018-07-26 03:06:00,-2.307E-01,4C000000*,-702.6,967.427,91,26.5,44.8,0.408,739.3,2.2,1.050*
2018-07-26 03:07:00,-1.969E-01,4C000000*,-703.0,966.214,88,26.5,44.9,0.408,739.3,2.2,1.050*
2018-07-26 03:08:00,-3.646E-01,4C000000*,-703.0,966.214,90,26.4,45.2,0.408,739.3,2.2,1.050*
2018-07-26 03:09:00,-3.437E-01,4C000000*,-702.6,966.618,91,26.5,44.8,0.408,739.3,2.2,1.050*
2018-07-26 03:10:00,-2.739E-01,4C000000*,-703.0,966.214,91,26.4,45.0,0.408,739.3,2.2,1.050*
2018-07-26 03:11:00,-3.105E-01,4C000000*,-703.0,967.022,89,26.5,45.0,0.408,739.3,2.2,1.050*
2018-07-26 03:12:00,-2.970E-01,4C000000*,-703.0,965.809,91,26.5,44.8,0.408,739.3,2.2,1.050*
2018-07-26 03:13:00,-3.736E-01,4C000000*,-703.0,967.022,89,26.5,45.0,0.409,739.3,2.2,1.050*
2018-07-26 03:14:00,-2.911E-01,4C000000*,-703.0,966.214,89,26.6,44.9,0.408,739.3,2.2,1.050*
2018-07-26 03:15:00,-3.315E-01,4C000000*,-703.0,966.214,90,26.5,44.8,0.408,739.3,2.2,1.050*
2018-07-26 03:16:00,-3.243E-01,4C000000*,-702.6,967.427,90,26.5,45.1,0.408,739.3,2.2,1.050*
2018-07-26 03:17:00,-3.365E-01,4C000000*,-703.0,965.405,89,26.5,44.8,0.408,739.3,2.2,1.050*
2018-07-26 03:18:00,-2.876E-01,4C000000*,-703.0,966.618,90,26.5,44.8,0.408,739.3,2.2,1.050*
2018-07-26 03:19:00,-2.988E-01,4C000000*,-702.6,965.809,89,26.5,45.2,0.409,739.6,2.2,1.050*
2018-07-26 03:20:00,-3.408E-01,4C000000*,-703.0,966.214,90,26.5,44.8,0.408,739.3,2.2,1.050*
2018-07-26 03:21:00,-3.821E-01,4C000000*,-702.6,966.214,90,26.6,45.0,0.408,739.3,2.2,1.050*
2018-07-26 03:22:00,-3.296E-01,4C000000*,-703.0,964.597,89,26.6,45.0,0.408,739.3,2.2,1.050*
2018-07-26 03:23:00,-3.626E-01,4C000000*,-703.0,966.214,90,26.5,44.9,0.408,739.3,2.2,1.050*
2018-07-26 03:24:00,-3.359E-01,4C000000*,-703.0,966.214,89,26.6,45.1,0.409,739.3,2.2,1.050*
2018-07-26 03:25:00,-3.334E-01,4C000000*,-703.0,965.001,91,26.6,44.9,0.408,739.3,2.2,1.050*
2018-07-26 03:26:00,-2.676E-01,4C000000*,-702.6,965.001,90,26.6,45.2,0.408,739.6,2.2,1.050*
2018-07-26 03:27:00,-4.044E-01,4C000000*,-703.0,965.405,87,26.6,44.9,0.408,739.3,2.2,1.050*
2018-07-26 03:28:00,-3.222E-01,4C000000*,-703.0,965.809,89,26.6,45.1,0.409,739.3,2.2,1.050*
2018-07-26 03:29:00,-2.516E-01,4C000000*,-702.6,965.809,90,26.7,45.0,0.408,739.3,2.2,1.050*
2018-07-26 03:30:00,-3.648E-01,4C000000*,-702.6,965.405,90,26.6,44.7,0.408,739.3,2.2,1.050*
2018-07-26 03:31:00,-2.788E-01,4C000000*,-703.4,964.597,91,26.6,45.0,0.408,739.3,2.2,1.050*
2018-07-26 03:32:00,-3.479E-01,4C000000*,-702.6,965.405,89,26.7,45.0,0.408,739.3,2.2,1.050*
2018-07-26 03:33:00,-2.064E-01,4C000000*,-702.6,964.597,89,26.6,44.9,0.408,739.3,2.2,1.050*
2018-07-26 03:34:00,-2.518E-01,4C000000*,-702.6,966.618,91,26.7,45.1,0.408,739.3,2.2,1.050*
2018-07-26 03:35:00,-3.233E-01,4C000000*,-703.0,965.001,90,26.7,44.8,0.408,739.3,2.2,1.050*
2018-07-26 03:36:00,-2.367E-01,4C000000*,-703.0,965.405,91,26.6,44.9,0.408,739.6,2.2,1.050*
2018-07-26 03:37:00,-3.358E-01,4C000000*,-703.0,967.831,91,26.7,45.2,0.408,739.3,2.2,1.050*
2018-07-26 03:38:00,-2.708E-01,4C000000*,-703.0,966.618,88,26.7,44.8,0.408,739.3,2.2,1.050*
2018-07-26 03:39:00,-2.482E-01,4C000000*,-702.6,965.809,90,26.7,45.0,0.408,739.6,2.2,1.050*
2018-07-26 03:40:00,-2.255E-01,4C000000*,-702.6,967.427,90,26.6,45.0,0.408,739.3,2.2,1.050*
2018-07-26 03:41:00,-2.342E-01,4C000000*,-703.0,967.022,90,26.6,44.8,0.408,739.3,2.2,1.050*
2018-07-26 03:42:00,-2.968E-01,4C000000*,-702.6,965.809,89,26.7,45.1,0.408,739.3,2.2,1.050*
2018-07-26 03:43:00,-2.676E-01,4C000000*,-702.6,966.618,89,26.7,45.0,0.408,739.3,2.2,1.050*
2018-07-26 03:44:00,-3.336E-01,4C000000*,-702.6,965.809,90,26.7,44.8,0.408,739.3,2.2,1.050*
2018-07-26 03:45:00,-3.873E-01,4C000000*,-702.6,967.427,90,26.7,45.1,0.409,739.3,2.2,1.050*
2018-07-26 03:46:00,-2.889E-01,4C000000*,-702.6,967.831,89,26.7,44.8,0.408,739.3,2.2,1.050*
2018-07-26 03:47:00,-2.423E-01,4C000000*,-703.0,966.214,90,26.7,44.9,0.408,739.3,2.2,1.050*
2018-07-26 03:48:00,-1.920E-01,4C000000*,-702.6,966.214,91,26.7,45.2,0.408,739.3,2.1,1.050*
2018-07-26 03:49:00,-2.637E-01,4C000000*,-702.6,965.809,90,26.7,44.8,0.408,739.3,2.2,1.050*
2018-07-26 03:50:00,-3.193E-01,4C000000*,-703.0,967.022,90,26.8,45.0,0.408,739.6,2.1,1.050*
2018-07-26 03:51:00,-2.701E-01,4C000000*,-703.0,967.831,91,26.7,44.9,0.408,739.3,2.1,1.050*
2018-07-26 03:52:00,-3.508E-01,4C000000*,-702.6,966.214,90,26.8,44.9,0.408,739.3,2.1,1.050*
2018-07-26 03:53:00,-2.976E-01,4C000000*,-702.6,966.214,90,26.8,45.2,0.409,739.3,2.1,1.050*
2018-07-26 03:54:00,-3.012E-01,4C000000*,-703.0,965.809,89,26.7,44.8,0.408,739.3,2.2,1.050*
2018-07-26 03:55:00,-3.741E-01,4C000000*,-703.0,966.214,90,26.8,45.1,0.408,739.3,2.1,1.050*
2018-07-26 03:56:00,-2.899E-01,4C000000*,-703.0,967.022,90,26.7,44.8,0.408,739.3,2.1,1.050*
2018-07-26 03:57:00,-3.492E-01,4C000000*,-702.6,966.214,89,26.8,44.9,0.409,739.6,2.1,1.050*
2018-07-26 03:58:00,-3.156E-01,4C000000*,-702.6,967.831,91,26.8,45.1,0.408,739.3,2.1,1.050*
2018-07-26 03:59:00,-3.194E-01,4C000000*,-703.0,966.214,90,26.7,44.7,0.409,739.3,2.2,1.050*
2018-07-26 04:00:00,-2.383E-01,4C000000*,-702.6,965.809,90,26.8,44.9,0.408,739.6,2.1,1.050*
2018-07-26 04:01:00,-2.759E-01,4C000000*,-703.4,965.809,91,26.8,45.1,0.408,739.3,2.1,1.050*
2018-07-26 04:02:00,-3.463E-01,4C000000*,-702.6,965.405,90,26.8,44.8,0.408,739.3,2.1,1.050*
2018-07-26 04:03:00,-3.799E-01,4C000000*,-703.0,965.405,91,26.7,45.0,0.409,739.3,2.1,1.050*
2018-07-26 04:04:00,-2.866E-01,4C000000*,-702.6,965.405,89,26.8,44.9,0.409,739.3,2.1,1.050*
2018-07-26 04:05:00,-3.214E-01,4C000000*,-703.0,966.618,88,26.8,45.0,0.409,739.3,2.1,1.050*
2018-07-26 04:06:00,-3.017E-01,4C000000*,-702.6,965.809,90,26.8,45.0,0.408,739.3,2.1,1.050*
2018-07-26 04:07:00,-2.789E-01,4C000000*,-702.6,967.022,89,26.8,44.9,0.409,739.3,2.1,1.050*
2018-07-26 04:08:00,-3.565E-01,4C000000*,-703.4,967.022,89,26.8,45.1,0.409,739.3,2.1,1.050*
2018-07-26 04:09:00,-2.843E-01,4C000000*,-703.0,966.214,90,26.9,44.8,0.408,739.3,2.1,1.050*
2018-07-26 04:10:00,-2.075E-01,4C000000*,-702.6,965.809,90,26.9,45.1,0.409,739.3,2.1,1.050*
2018-07-26 04:11:00,-2.948E-01,4C000000*,-702.6,966.214,88,26.8,44.9,0.408,739.3,2.1,1.050*
2018-07-26 04:12:00,-3.264E-01,4C000000*,-702.6,965.809,91,26.9,45.0,0.408,739.3,2.1,1.050*
2018-07-26 04:13:00,-2.736E-01,4C000000*,-702.6,966.214,88,26.8,45.0,0.408,739.3,2.1,1.050*
2018-07-26 04:14:00,-2.931E-01,4C000000*,-703.0,967.831,90,26.8,44.8,0.408,739.3,2.1,1.050*